Terminal Aerodrome Forecast
Issued by NWS Indianapolis, IN

Home | Current Version | Previous Version | Text Only | Print | Product List | Glossary On
Versions: 1 2 3 4 5 6 7 8 9 10 11 12 13 14 15 16 17 18 19 20 21 22 23 24 25 26
300
FTUS43 KIND 221408 AAB
TAFIND
TAF AMD
KIND 221408Z 2214/2318 VRB06KT P6SM VCSH OVC070
      TEMPO 2214/2216 3SM -SHRA OVC035
     FM221600 25007KT P6SM VCTS OVC050CB
     FM221800 28007KT P6SM BKN080
     FM230100 32006KT P6SM SCT120=

USA.gov is the U.S. government's official web portal to all federal, state and local government web resources and services.